Regional Weather Roundup
Issued by NWS

Home | Current Version | Previous Version | Graphics & Text | Print | Product List | Glossary On
Versions: 1 2 3 4 5 6 7 8 9 10 11 12 13 14 15 16 17 18 19 20 21 22 23 24 25 26 27 28 29 30 31 32 33 34 35 36 37 38 39 40 41 42 43 44 45 46 47 48 49 50
935
ASUS45 KPSR 080710
RWRAZ

ARIZONA HOURLY REGIONAL WEATHER ROUNDUP
NATIONAL WEATHER SERVICE PHOENIX AZ
1200 AM MST MON FEB 08 2016

NOTE: FAIR INDICATES FEW OR NO CLOUDS BELOW 12,000 FEET WITH NO
SIGNIFICANT WEATHER AND/OR OBSTRUCTIONS TO VISIBILITY.

AZZ001>003-036-080800-
NORTHWEST ARIZONA

CITY           SKY/WX    TMP DP  RH WIND       PRES   REMARKS
BULLHEAD CITY  CLEAR     64  18  16 N26G36    30.29S
KINGMAN        CLEAR     45  22  40 N6        30.38R
$$

AZZ004>008-015-016-018-080800-
NORTH CENTRAL ARIZONA

CITY           SKY/WX    TMP DP  RH WIND       PRES   REMARKS
GRAND CANYON   CLEAR     38  15  39 E15G24    30.48S WCI  29
WILLIAMS       CLEAR     34  14  44 NE10      30.48F WCI  26
PRESCOTT       CLEAR     37  20  50 S3        30.38S
FLAGSTAFF      CLEAR     37  14  38 E17       30.44S WCI  27
PAYSON         CLEAR     46  16  29 N6        30.36S
PAGE           CLEAR     32  23  69 SE6       30.51S WCI  26
$$

AZZ009>014-017-080800-
NORTHEAST ARIZONA

CITY           SKY/WX    TMP DP  RH WIND       PRES   REMARKS
WINSLOW        CLEAR     30  18  60 W10       30.46S WCI  21
SAINT JOHNS    CLEAR     32  19  58 CALM      30.42F
WINDOW ROCK    CLEAR     25   0  33 CALM      30.46R
SHOW LOW       CLEAR     27  16  63 E7        30.45S WCI  19
$$

AZZ023-080800-
GREATER PHOENIX AREA

CITY           SKY/WX    TMP DP  RH WIND       PRES   REMARKS
PHOENIX        PTCLDY    63  24  22 E6        30.15S
BUCKEYE        CLEAR     54  27  35 N5        30.18R
LUKE AFB       CLEAR     64  23  20 NE15      30.15S
DEER VALLEY    CLEAR     59  22  24 NE6       30.17S
SCOTTSDALE     CLEAR     67  18  15 N6        30.18S
MESA-GATEWAY   CLEAR     52  30  43 SE6       30.17
$$

AZZ027-028-080800-
SOUTHWEST MARICOPA COUNTY AND PINAL COUNTY

CITY           SKY/WX    TMP DP  RH WIND       PRES   REMARKS
CASA GRANDE    PTCLDY    54  23  30 NE7       30.17S
GILA BEND      FAIR      50  25  38 SE8       30.14S
$$

AZZ503-504-507>509-080800-
SOUTHEAST ARIZONA

CITY           SKY/WX    TMP DP  RH WIND       PRES   REMARKS
TUCSON         CLEAR     49  19  30 S5        30.20S
DAVIS-MONTHAN  PTCLDY    48  19  31 SE7       30.18F
NOGALES        PTCLDY    43  14  31 CALM      30.22F
SIERRA VISTA   PTCLDY    40  16  37 CALM      30.27F
DOUGLAS        MOCLDY    37  13  37 N10       30.27F WCI  30
SAFFORD        CLEAR     40  21  46 E8        30.26F WCI  34
$$

AZZ020-021-025-026-031-080800-
SOUTHWEST ARIZONA

CITY           SKY/WX    TMP DP  RH WIND       PRES   REMARKS
YUMA           PTCLDY    67  21  17 N8        30.14S
$$

CAZ031-033-041-043-047-048-061-080800-
SOUTHERN CALIFORNIA

CITY           SKY/WX    TMP DP  RH WIND       PRES   REMARKS
DOWNTOWN L.A.  CLEAR     60  35  39 CALM      30.13R
L.A. AIRPORT   CLEAR     66  30  26 CALM      30.13R
SAN DIEGO      CLEAR     62  29  28 CALM      30.12R
BURBANK        CLEAR     66  21  18 CALM      30.14R
ONTARIO        CLEAR     74  17  11 NE14G31   30.15R
RIVERSIDE      CLEAR     72  17  12 NE13G22   30.18S
PALM SPRINGS   CLEAR     71  20  14 NW9       30.23S
EL CENTRO NAS  CLEAR     52  22  30 W9        30.19R
IMPERIAL       CLEAR     54  26  34 W7        30.16R
BLYTHE         CLEAR     65  23  20 N12       30.18S
NEEDLES        CLEAR     62  20  19 N15       30.27R
$$

NVZ020-UTZ003-080800-
SOUTHERN NEVADA-UTAH

CITY           SKY/WX    TMP DP  RH WIND       PRES   REMARKS
LAS VEGAS      CLEAR     53  24  32 E7        30.38R
SALT LAKE CITY PTCLDY    28  25  88 S5        30.67R WCI  23
$$

NMZ009-TXZ055-080800-
NEW MEXICO-WEST TEXAS

CITY           SKY/WX    TMP DP  RH WIND       PRES   REMARKS
ALBUQUERQUE    CLOUDY    35  18  49 CALM      30.41R
EL PASO        MOCLDY    42  16  34 N7        30.30S
$$


........................KEY........................
SKY/WX - SKY CONDITION/WEATHER
TMP    - TEMPERATURE IN FAHRENHEIT
DP     - DEW POINT IN FAHRENHEIT
RH     - RELATIVE HUMIDITY IN PERCENT
WIND   - DIRECTION AND SPEED IN MILES PER HOUR (MPH)
VRB    - VARIABLE WIND DIRECTION
PRES   - MEAN SEA LEVEL PRESSURE IN INCHES OF MERCURY
         F - FALLING PRESSURE   R - RISING PRESSURE
         S - STEADY PRESSURE
VSB    - VISIBILITY IN MILES
HX     - HEAT INDEX IN FAHRENHEIT
WCI    - WIND CHILL INDEX IN FAHRENHEIT
TC     - TEMPERATURE IN CELSIUS WHICH IS ALSO KNOWN AS
         TEMPERATURE IN CENTIGRADE
AFB    - AIR FORCE BASE
         LUKE AFB IS LUKE AIR FORCE BASE
         DAVIS-MONTHAN IS DAVIS-MONTHAN AIR FORCE BASE
NAS    - NAVAL AIR STATION
         EL CENTRO NAS IS EL CENTRO NAVAL AIR STATION
N/A    - NOT AVAILABLE





USA.gov is the U.S. government's official web portal to all federal, state and local government web resources and services.